Location: ????????
(55.4717°N, 39.1821°E)
Time: 06:11:21
(UTC+00:00)

USA 229 - Pass Details

Date: 14 April 2024
Orbit: 890 x 1322 km, 63.4° (Epoch: 18 May)

Event Time Altitude Azimuth Distance (km) Brightness Sun altitude
Rises 01:34:46 0° 303° (WNW) 3,838 6.3 -6.8°
Reaches altitude 10° 01:37:20 10° 306° (NW) 2,942 5.8 -6.5°
Maximum altitude 01:44:22 65° 28° (NNE) 1,285 4.4 -5.6°
Drops below altitude 10° 01:52:08 10° 110° (ESE) 3,237 7.0 -4.6°
Sets 01:55:05 0° 114° (ESE) 4,246 7.5 -4.2°
